Location: Aurora Center
(43.5271°N, 98.5894°W)
Time: 07:27:37
(UTC-05:00)

ACS3 Solar Sail - Visible Passes

Search period start: 18 June 2024 00:00
Search period end: 28 June 2024 00:00
Orbit: 992 x 1024 km, 97.4° (Epoch: 17 June)

Date Brightness Start Highest point End Pass type
(mag) Time Alt. Az. Time Alt. Az. Time Alt. Az.
18 Jun 5.0 22:43:11 15° SSE 22:48:17 63° ENE 22:54:26 10° N visible
19 Jun 6.6 00:28:32 11° SW 00:32:52 22° W 00:37:30 10° NW visible
19 Jun 5.0 23:17:59 19° S 23:22:41 73° WSW 23:28:55 10° NNW visible
20 Jun 7.2 01:06:54 10° W 01:07:51 10° W 01:08:48 10° WNW visible
20 Jun 5.7 22:07:39 10° SE 22:13:13 36° ENE 22:18:48 10° N visible
20 Jun 5.8 23:52:47 16° SSW 23:57:15 39° W 00:03:02 10° NNW visible
21 Jun 5.0 22:42:14 15° SSE 22:47:26 65° ENE 22:53:35 10° N visible
22 Jun 6.7 00:27:34 10° SW 00:32:02 21° W 00:36:35 10° NW visible
22 Jun 5.0 23:17:01 18° S 23:21:49 71° W 23:28:03 10° NNW visible
23 Jun 5.6 22:06:45 10° SE 22:12:21 37° ENE 22:17:57 10° N visible
23 Jun 5.9 23:51:49 15° SSW 23:56:25 38° W 00:02:09 10° NNW visible
24 Jun 4.9 22:41:16 14° SSE 22:46:34 67° ENE 22:52:44 10° N visible
25 Jun 6.7 00:26:46 10° SW 00:31:12 20° W 00:35:39 10° NW visible
25 Jun 5.1 23:16:04 17° S 23:20:59 68° W 23:27:11 10° NNW visible
26 Jun 5.6 22:05:50 10° SE 22:11:29 38° ENE 22:17:07 10° N visible
26 Jun 5.9 23:50:52 14° SSW 23:55:34 37° W 00:01:16 10° NNW visible
27 Jun 4.9 22:40:19 14° SSE 22:45:42 69° ENE 22:51:53 10° N visible
